GFSNIL_sfc_rhum_000.txt.gz
RH
95 88 87 90 88 85 84 84 88 85 84 81 81 82 85 84 84 89 92 91 95 96
94 89 87 90 86 84 87 80 84 82 82 78 78 84 83 83 86 87 88 90 90 88
88 85 84 87 88 85 84 82 82 82 81 81 82 84 87 85 84 87 82 86 89 92
79 79 81 82 83 83 82 84 84 84 82 83 83 84 87 88 86 88 90 89 91 90
72 77 74 84 83 85 84 85 84 84 85 85 85 86 86 85 83 86 88 88 89 87
77 81 87 86 86 86 84 84 82 84 86 85 83 82 83 86 86 87 87 87 88 87
83 79 86 88 87 85 84 83 84 84 82 81 79 78 80 83 86 87 83 86 88 86
81 80 89 92 92 90 85 82 83 83 82 81 76 66 82 84 86 86 85 88 86 85
88 94 95 98 97 89 85 86 84 83 82 82 71 79 84 84 82 86 87 84 84 83
93 94 95 98 96 93 88 84 82 84 83 83 83 86 86 86 89 85 82 87 89 84
92 91 95 95 94 93 91 88 86 86 86 84 82 85 89 89 90 90 84 86 86 90
90 90 92 92 92 85 89 90 91 90 89 90 90 93 93 93 94 90 90 86 84 84
92 90 90 91 91 89 93 93 95 94 93 97 95 95 100 98 96 90 84 88 90 88
94 94 94 96 96 97 98 98 97 95 93 94 96 96 99 96 93 82 86 86 79 87

GFSNIL_sfc_rhum_003.txt.gz
RH
81 68 69 74 66 64 62 62 64 67 67 71 68 65 70 58 55 66 64 72 72 58
81 80 73 78 77 64 71 57 64 64 68 66 63 66 69 52 60 66 68 65 68 61
76 80 78 80 80 72 68 64 66 66 64 63 63 63 70 59 60 67 55 56 70 72
74 75 79 83 78 83 76 70 68 68 64 62 63 65 70 70 62 64 65 68 71 71
74 85 82 81 82 77 80 70 67 66 66 65 62 63 68 65 55 63 64 63 68 66
73 74 76 81 72 80 83 82 65 68 71 67 64 66 68 67 62 64 65 64 65 64
72 71 82 84 93 85 87 82 84 78 76 68 65 63 60 60 66 66 62 65 64 65
70 71 81 93 95 92 94 95 82 80 78 71 63 50 63 64 66 68 65 63 68 65
74 83 85 88 91 90 92 90 84 79 79 80 64 72 79 73 63 66 70 69 64 68
80 84 88 85 88 92 94 94 84 80 79 79 78 83 86 87 63 65 69 81 75 66
81 83 86 86 89 91 91 85 81 79 79 77 70 89 91 94 76 89 82 73 73 71
81 83 85 84 87 87 85 81 85 76 80 79 80 94 94 92 88 86 89 80 74 75
82 83 82 80 85 83 80 89 76 79 81 85 84 99 98 96 99 97 96 80 81 86
84 82 79 82 82 82 85 82 87 89 86 85 86 88 93 100 93 95 78 63 60 64

GFSNIL_sfc_rhum_006.txt.gz
RH
72 57 55 57 44 42 39 38 48 64 57 55 54 56 56 46 46 52 50 58 58 42
72 70 56 59 59 46 53 38 51 58 57 51 54 54 57 45 52 51 53 51 55 49
64 67 65 61 66 62 54 58 54 57 52 52 54 54 60 49 52 56 42 38 49 55
58 59 64 63 70 68 67 63 60 61 56 53 54 56 61 59 50 51 54 51 55 59
58 58 61 72 73 81 73 66 66 65 63 66 52 55 59 57 47 50 52 52 57 56
56 59 62 70 72 74 70 78 73 72 76 70 71 56 58 59 57 53 51 52 55 55
56 57 63 67 80 78 71 75 86 81 83 66 62 63 60 55 57 54 50 54 56 57
57 60 66 73 76 75 72 72 75 76 69 68 65 60 61 56 52 56 56 55 54 55
62 67 71 80 80 73 76 73 77 73 66 66 58 62 74 62 53 56 59 60 60 66
66 72 76 77 78 76 78 77 66 65 66 68 67 77 78 80 51 53 57 65 70 70
69 73 76 80 78 76 67 70 70 69 70 66 59 85 90 86 63 64 63 66 69 73
68 72 76 79 79 74 70 66 65 66 68 70 67 92 90 90 57 59 68 84 78 82
70 71 76 78 78 80 73 67 57 64 67 69 74 94 90 86 50 73 63 91 90 91
71 74 78 80 83 81 77 77 73 71 66 73 84 74 96 95 72 50 66 59 80 68

GFSNIL_sfc_rhum_009.txt.gz
RH
72 52 49 56 44 41 37 38 60 59 56 56 52 54 57 48 47 54 51 57 63 44
71 70 53 61 62 44 52 36 46 54 58 56 51 55 58 48 56 55 54 57 61 51
66 70 67 64 64 60 53 55 56 58 58 56 56 59 64 55 57 58 48 41 56 59
61 61 66 64 63 64 60 63 58 66 62 59 61 63 67 63 55 57 63 62 57 59
61 61 61 67 64 67 68 64 64 65 68 60 64 72 65 62 55 54 56 56 63 58
58 60 62 67 64 70 70 70 62 66 71 65 63 62 64 64 73 56 54 55 59 58
58 59 58 64 69 67 73 73 69 67 70 68 65 64 61 61 62 63 59 58 58 58
58 59 61 64 69 71 73 73 71 69 69 70 54 48 66 57 57 68 63 56 55 58
61 65 66 69 73 78 77 74 72 70 72 64 47 61 75 63 53 60 64 61 62 64
63 68 71 72 78 82 82 75 73 70 63 63 62 90 82 79 51 54 59 70 67 59
63 68 72 78 81 84 80 77 73 72 66 68 65 87 84 83 57 60 63 61 66 71
60 66 68 75 78 78 81 79 71 69 74 76 70 87 88 82 63 67 69 63 64 62
64 67 67 72 83 82 80 76 61 64 77 78 72 91 91 85 74 71 68 82 80 94
64 69 70 75 81 81 82 82 83 79 77 71 73 76 96 94 79 51 48 65 63 64

GFSNIL_sfc_rhum_012.txt.gz
RH
79 70 68 69 66 65 64 59 73 72 74 76 75 75 80 76 73 77 76 73 78 78
80 77 70 72 71 66 70 63 69 70 75 73 75 77 82 74 77 76 79 78 78 77
76 76 72 73 76 70 70 68 74 74 72 73 74 78 83 77 77 79 75 73 79 80
72 74 73 73 72 74 70 72 74 75 74 74 73 76 81 80 74 78 78 76 77 74
74 74 74 74 74 73 76 74 73 75 76 74 71 76 77 74 65 76 77 77 79 75
69 73 74 76 72 75 74 74 68 74 77 75 70 75 75 75 75 74 74 75 77 76
68 69 69 73 77 73 75 76 75 74 76 75 70 72 71 74 76 77 73 75 75 76
67 69 71 73 76 76 76 77 76 78 76 76 69 60 73 73 75 79 76 78 74 73
67 72 73 75 76 79 78 81 80 81 76 79 71 68 77 74 72 77 78 79 77 74
66 72 74 74 77 78 83 82 86 83 78 82 78 87 85 81 70 74 72 79 80 73
67 72 74 76 77 80 83 85 86 85 87 82 73 84 90 88 77 74 79 78 81 84
69 73 76 79 82 83 86 87 88 88 84 88 84 97 91 88 75 71 77 78 79 84
71 76 78 81 87 88 86 88 82 84 82 84 83 93 92 87 68 71 76 89 87 91
73 78 79 84 87 87 88 86 87 85 80 81 86 87 92 91 84 86 94 92 93 87

GFSNIL_sfc_rhum_015.txt.gz
RH
89 70 72 80 86 75 73 72 79 77 77 79 74 84 86 86 84 84 84 77 80 80
77 80 76 85 83 84 71 72 77 80 77 75 78 79 85 89 84 86 86 79 82 80
78 75 73 90 80 83 76 81 75 82 75 84 75 85 91 86 88 86 90 86 87 82
81 80 74 84 83 81 79 84 78 78 80 78 80 84 91 86 83 90 84 84 83 87
80 80 80 74 82 89 73 84 77 76 80 78 75 78 84 82 75 84 90 84 84 79
77 80 80 77 77 83 79 78 78 79 77 79 79 79 82 80 83 89 83 87 83 83
76 76 76 77 75 78 81 86 75 76 77 76 80 74 80 83 86 89 86 85 84 77
73 73 76 77 80 77 79 82 87 84 84 85 82 73 89 82 85 91 90 86 81 73
71 74 77 80 82 85 82 89 86 91 88 89 79 82 85 80 84 92 91 82 80 79
68 76 77 80 82 90 87 86 93 87 90 90 88 93 90 88 87 82 82 81 80 79
70 72 77 78 84 79 86 83 95 96 96 92 95 89 94 89 88 90 87 85 89 92
66 72 76 81 79 80 92 95 98 98 96 95 96 94 96 88 82 79 77 87 89 93
62 70 79 78 82 97 96 98 98 97 94 94 92 93 89 89 75 79 92 92 92 93
71 79 79 94 97 97 97 95 97 94 88 80 87 96 91 92 78 83 96 97 96 96

GFSNIL_sfc_rhum_018.txt.gz
RH
76 74 79 84 89 88 78 74 85 86 79 81 80 89 87 88 88 88 86 89 90 86
78 74 74 90 92 88 79 75 86 82 78 77 78 91 92 93 88 92 90 87 85 89
75 79 76 84 92 88 81 80 83 82 77 77 77 85 91 95 89 88 95 90 87 90
74 72 80 85 86 83 81 77 81 81 78 76 79 80 92 92 92 88 90 92 90 88
78 78 76 74 86 85 80 80 78 80 79 78 77 80 80 89 80 90 90 88 91 86
81 83 82 76 72 87 80 84 80 80 81 79 80 83 81 84 85 83 90 88 87 86
81 82 81 80 78 77 81 83 85 81 81 81 78 79 80 84 82 82 83 86 86 84
78 79 81 83 82 78 81 82 87 86 84 82 83 80 83 83 81 85 85 91 90 87
79 80 82 85 87 85 84 95 94 88 86 89 80 84 87 81 89 86 88 89 94 88
81 83 84 84 87 92 87 87 96 92 91 92 88 91 90 90 95 94 90 90 91 87
80 83 83 86 89 90 91 87 96 96 94 92 94 94 92 91 93 94 89 89 93 92
77 80 84 86 89 86 89 93 95 95 97 96 97 96 95 96 96 94 90 90 92 95
74 76 81 83 85 83 92 95 97 99 98 96 97 94 95 96 83 87 86 92 92 94
69 74 75 82 88 95 96 98 99 99 98 96 96 97 98 94 78 82 95 96 96 96

GFSNIL_sfc_rhum_021.txt.gz
RH
70 70 69 79 78 78 92 90 86 89 91 88 83 89 89 93 91 91 90 88 91 92
73 71 74 85 78 81 84 86 91 89 89 88 81 86 90 95 92 93 92 92 94 92
76 75 76 83 85 89 86 86 91 91 87 86 82 86 91 95 92 95 96 93 92 93
75 76 78 78 82 87 89 90 87 88 85 85 83 85 89 95 94 92 94 94 93 88
72 75 80 77 78 84 85 87 84 86 86 84 81 80 85 91 86 88 92 92 94 92
72 76 79 79 75 89 83 85 84 84 85 85 83 84 80 84 87 86 86 87 90 93
74 75 74 74 76 79 87 89 85 84 84 82 81 81 83 82 88 88 85 90 88 88
74 74 77 79 77 76 85 83 86 86 86 85 82 79 83 89 91 91 90 88 95 93
76 77 81 84 85 83 85 86 90 90 87 90 83 85 87 82 92 92 94 96 93 93
76 81 84 85 88 90 87 90 96 91 90 93 89 90 90 88 93 96 96 91 93 90
78 80 83 87 90 91 88 95 97 96 94 91 91 94 93 91 92 96 94 92 93 90
79 81 83 89 90 90 89 90 97 96 96 95 96 98 96 96 94 97 96 96 92 95
77 81 85 85 87 85 90 94 96 97 96 98 97 100 98 96 98 99 97 98 96 96
76 80 81 83 89 94 96 96 96 96 98 98 98 100 99 99 98 98 99 98 98 97

GFSNIL_sfc_rhum_024.txt.gz
RH
80 74 74 79 78 82 84 87 92 91 89 90 88 86 89 85 82 88 86 88 86 81
79 78 77 81 81 79 85 84 91 90 90 91 87 87 89 84 86 87 87 87 87 81
77 78 77 80 83 82 83 87 91 91 90 91 88 87 89 88 88 90 85 82 89 88
76 77 77 80 81 83 83 88 90 91 92 91 89 88 87 88 88 88 90 88 88 88
78 79 78 81 80 84 86 88 87 90 91 90 88 87 87 86 83 86 88 87 91 86
76 79 81 82 79 86 87 89 86 88 90 90 88 88 86 85 85 85 84 84 87 87
75 76 77 80 80 84 86 88 88 88 89 88 87 85 84 84 87 86 84 87 86 86
75 75 78 82 83 82 88 86 85 87 87 87 84 78 86 86 87 89 88 89 89 87
76 78 80 83 85 86 89 88 89 88 87 88 79 85 89 84 89 89 91 93 92 90
78 82 82 83 85 86 88 90 93 89 88 90 88 91 91 89 90 93 93 93 93 93
80 82 83 86 88 87 84 88 92 93 92 90 89 94 92 91 89 93 93 92 92 92
79 82 83 88 89 87 87 88 93 93 94 94 93 96 96 94 92 95 94 93 93 93
79 82 84 85 87 86 87 91 92 95 94 92 92 99 97 95 95 97 97 97 95 96
79 82 80 84 84 90 93 93 95 94 95 94 94 97 99 97 95 96 98 98 98 98

GFSNIL_sfc_rhum_027.txt.gz
RH
80 65 64 68 58 58 56 56 66 73 71 74 74 74 76 68 64 68 66 72 69 53
78 76 67 71 72 58 68 54 64 70 73 74 75 75 77 62 72 70 70 68 72 60
73 75 71 72 75 70 66 69 66 72 72 73 76 76 80 70 72 74 63 58 72 71
70 70 72 70 72 73 71 73 72 74 72 73 75 77 80 76 71 75 73 70 72 74
71 71 70 72 71 73 75 72 74 74 74 73 73 76 79 76 69 74 73 70 73 71
69 71 73 73 71 74 75 75 69 73 76 74 73 76 78 76 75 73 71 69 71 69
70 69 69 72 74 72 75 76 75 75 75 73 71 73 72 74 75 74 70 70 69 68
70 70 72 75 75 74 75 75 75 76 75 74 68 61 74 74 74 76 74 73 73 70
72 75 76 78 78 79 77 78 77 76 76 76 62 76 87 77 72 75 78 77 76 73
73 77 78 76 79 80 80 79 80 78 76 78 76 86 90 89 67 73 75 77 75 72
75 76 77 78 80 81 77 80 79 79 79 78 74 90 91 89 74 75 75 75 76 77
72 74 76 79 80 78 77 78 78 76 81 82 78 94 93 90 74 73 78 76 76 77
71 74 76 78 80 78 76 75 67 75 78 83 79 98 95 89 61 72 69 79 82 94
72 76 76 82 80 79 79 76 79 78 79 82 83 82 98 97 72 62 71 76 82 72

GFSNIL_sfc_rhum_030.txt.gz
RH
75 55 55 59 46 46 41 42 50 58 60 63 62 64 66 60 59 62 60 63 59 36
73 70 55 63 62 46 56 41 49 54 62 60 62 65 69 57 65 59 64 58 62 49
65 70 67 64 67 62 54 58 51 57 59 60 62 65 71 61 64 68 55 47 57 60
60 60 65 63 65 66 61 62 62 63 61 59 62 66 71 68 60 70 68 61 57 64
63 63 59 67 64 67 69 63 66 64 65 62 59 64 69 69 58 66 68 66 66 62
58 60 63 66 66 68 69 68 58 63 68 66 62 64 65 67 66 63 65 64 66 64
59 60 60 65 68 65 69 70 68 66 67 65 62 60 60 62 65 64 62 64 63 62
60 62 63 67 69 68 68 68 68 68 66 66 57 49 64 63 63 66 65 64 64 63
62 67 68 70 72 73 71 71 71 69 68 67 50 63 76 68 60 66 69 68 66 65
64 69 71 69 73 75 75 72 75 71 69 70 68 74 80 83 56 63 66 69 67 62
65 68 71 73 74 76 72 74 73 73 73 71 66 83 84 83 66 63 64 66 68 70
62 65 67 74 76 73 72 72 70 68 73 75 72 89 89 86 65 62 68 65 65 67
62 66 68 72 76 72 70 68 58 64 68 75 73 94 92 84 53 62 54 69 74 86
62 68 69 74 73 74 72 67 73 72 70 73 74 75 95 94 66 47 52 46 56 56

GFSNIL_sfc_rhum_033.txt.gz
RH
73 54 53 55 41 40 36 37 49 63 61 63 62 64 66 58 59 64 61 63 65 37
74 70 56 62 61 45 54 36 47 56 63 62 62 65 69 56 67 62 65 64 65 52
69 72 66 63 66 60 54 57 52 55 57 62 64 65 72 61 64 70 56 48 65 65
63 64 68 63 63 65 62 61 62 63 62 63 64 66 72 70 62 70 71 63 62 68
62 63 62 67 63 65 67 64 65 64 66 64 63 65 70 69 56 65 69 67 67 62
59 60 62 65 66 66 68 68 59 65 68 68 64 66 68 70 68 63 64 67 70 67
58 58 58 62 67 65 68 70 68 65 67 67 65 63 63 66 69 68 62 66 67 67
57 59 61 64 66 68 68 68 68 69 66 67 62 52 65 64 66 70 68 65 66 65
57 64 66 68 69 71 70 71 71 70 68 67 54 64 75 68 62 68 71 70 68 66
58 64 69 68 71 73 75 72 75 71 69 70 68 75 77 80 58 64 67 71 69 63
57 61 67 71 72 74 72 74 73 72 73 72 66 82 82 80 63 64 66 67 70 71
56 61 66 71 74 72 72 72 72 70 74 76 72 87 87 84 62 62 68 65 66 68
58 63 66 70 75 73 71 70 60 67 70 76 74 89 90 84 54 62 58 68 70 84
60 66 67 71 73 74 73 68 74 70 70 72 74 74 95 91 66 53 54 53 56 56

GFSNIL_sfc_rhum_036.txt.gz
RH
80 68 63 70 56 56 55 55 70 72 74 77 78 78 81 80 79 82 82 82 82 79
78 77 69 71 70 62 66 52 66 71 73 74 75 78 82 74 82 81 82 82 84 81
75 76 73 71 74 68 67 66 68 72 72 74 75 78 82 78 79 83 78 74 82 83
72 72 73 71 72 73 69 75 70 76 75 75 75 76 81 80 77 81 82 77 81 82
72 72 73 73 70 73 76 70 74 73 74 75 74 75 78 79 69 77 81 78 78 80
68 70 72 74 72 71 74 74 68 72 76 74 73 76 76 77 78 72 78 78 80 78
67 67 68 71 74 71 72 75 72 72 74 73 72 73 73 74 78 78 72 77 78 78
65 66 68 72 72 74 74 71 74 74 72 73 70 63 73 73 76 79 77 73 76 76
65 68 71 72 74 74 76 75 75 76 75 73 62 73 79 74 71 77 79 79 75 75
64 68 71 71 73 76 77 76 79 77 76 76 73 80 81 82 66 72 75 78 77 72
63 66 70 73 75 76 74 77 78 78 78 78 73 83 84 82 69 70 72 74 76 77
61 66 68 74 76 75 76 76 77 75 79 80 78 88 88 86 69 68 73 72 74 75
61 65 67 71 77 76 75 76 70 74 75 80 78 89 92 88 66 69 65 72 75 84
64 66 68 73 76 77 78 76 79 77 76 78 78 78 96 94 74 67 64 63 65 66

GFSNIL_sfc_rhum_039.txt.gz
RH
87 76 66 87 74 77 73 71 70 85 77 86 87 90 93 92 95 93 92 90 88 81
74 87 68 62 87 66 74 68 74 74 84 82 83 90 92 88 92 93 94 93 93 90
72 69 79 71 69 82 66 70 80 74 79 80 81 85 90 95 94 94 93 92 94 94
76 72 75 77 71 87 75 79 84 82 79 79 81 85 85 90 91 95 95 90 94 92
76 78 72 75 88 66 89 72 88 83 80 82 79 78 91 88 80 90 96 94 90 92
75 77 77 74 72 89 68 83 68 89 80 80 81 85 81 86 83 85 90 87 86 83
76 74 75 74 73 68 77 72 84 72 87 79 77 78 80 80 82 81 77 90 83 80
72 71 72 73 76 76 70 76 72 77 73 80 74 72 77 77 78 80 82 78 85 81
69 71 72 74 74 78 79 73 74 78 72 76 72 79 85 77 76 78 80 84 77 82
67 72 73 71 75 75 78 77 76 73 78 74 73 85 87 87 71 74 77 78 79 75
66 71 71 72 72 73 72 75 77 78 75 77 73 87 88 87 72 71 72 76 77 76
66 67 71 72 72 70 69 72 72 76 78 78 76 93 91 90 74 71 71 71 74 77
63 66 68 68 68 68 70 69 71 71 75 81 77 92 95 92 74 74 71 68 69 86
72 69 68 68 68 70 72 73 75 77 73 76 78 80 99 97 78 73 72 70 68 66

GFSNIL_sfc_rhum_042.txt.gz
RH
78 74 70 76 78 73 76 77 78 84 85 87 89 93 93 94 97 95 95 92 89 84
81 71 72 76 76 78 85 78 78 81 83 84 88 91 95 96 95 96 95 93 94 90
73 83 74 70 85 91 77 80 78 80 84 83 82 87 95 97 95 96 98 96 94 95
69 68 85 79 73 74 84 75 78 79 82 83 83 84 94 95 96 93 95 96 96 93
76 74 72 86 79 74 74 81 72 87 82 84 84 84 86 89 86 95 96 96 96 90
79 80 78 73 83 76 73 75 86 91 88 86 83 84 84 82 86 92 91 94 93 88
79 81 81 75 72 83 79 72 89 91 87 85 83 80 80 83 87 86 88 90 90 87
75 76 80 84 77 74 78 84 72 83 85 84 82 79 81 78 80 85 85 87 90 88
78 78 79 82 85 80 78 75 83 80 84 86 77 83 88 80 78 80 82 84 84 84
75 81 81 80 81 86 83 79 75 77 79 77 82 89 89 89 74 78 79 79 79 82
76 78 80 80 81 80 80 84 83 77 76 80 74 90 91 90 79 74 75 78 77 78
70 77 78 81 79 77 77 77 80 80 81 77 76 92 93 93 82 79 77 75 77 78
67 70 77 76 76 74 73 76 74 76 78 84 80 92 95 94 78 80 78 76 74 87
59 66 66 72 71 72 74 73 75 77 75 78 84 83 98 98 82 79 79 77 74 71

GFSNIL_sfc_rhum_045.txt.gz
RH
71 73 73 77 85 80 77 78 78 88 90 91 93 94 95 97 97 93 96 92 87 88
72 73 73 79 76 77 83 80 84 82 89 94 94 94 95 97 96 97 96 96 95 89
72 73 71 78 83 83 80 82 82 86 84 93 95 94 96 96 95 96 98 97 95 97
73 73 71 78 83 84 82 84 90 90 88 91 92 93 94 95 96 96 96 96 96 94
73 77 79 79 80 80 87 86 81 92 89 88 88 89 89 89 87 96 96 95 97 95
71 74 79 85 85 79 77 87 85 88 88 87 86 88 89 86 87 94 93 94 95 92
75 77 73 73 79 83 82 81 86 82 82 83 87 87 86 86 87 88 90 94 95 92
78 78 79 78 76 78 83 80 77 83 84 86 83 82 86 87 87 87 89 92 91 91
76 81 83 84 84 80 82 86 82 77 80 86 82 87 90 84 84 86 87 89 92 89
78 82 84 85 89 87 83 81 86 86 79 82 81 89 92 92 77 80 82 82 80 83
81 83 82 85 89 91 85 85 83 82 85 83 80 92 93 92 85 79 79 80 79 79
78 82 85 86 85 85 89 88 85 82 81 80 82 93 95 95 86 84 82 78 80 80
75 79 82 85 84 81 82 82 84 85 85 84 78 92 94 96 83 86 84 82 79 89
71 74 77 80 81 81 81 81 82 82 81 83 87 82 96 96 81 79 80 80 79 77

GFSNIL_sfc_rhum_048.txt.gz
RH
78 75 76 83 86 82 84 86 88 89 90 90 90 90 92 88 88 90 88 88 86 79
78 78 78 85 85 84 88 79 85 87 89 89 89 90 93 89 90 92 90 90 90 83
75 78 77 84 86 87 85 84 86 87 88 89 90 90 93 92 90 92 92 87 91 92
74 76 77 82 83 84 84 86 87 88 87 87 89 91 92 92 90 91 92 91 92 91
75 77 77 82 84 84 85 85 86 88 88 87 87 89 91 90 87 90 90 88 92 91
73 77 79 80 83 84 86 85 82 85 88 87 87 90 90 89 89 90 88 87 89 87
74 77 78 80 83 85 85 87 86 84 85 86 86 88 88 88 89 88 87 87 87 86
76 78 80 84 86 87 85 83 82 85 84 85 83 78 88 88 88 89 88 88 88 86
78 80 82 83 85 88 89 87 85 85 84 85 74 82 89 87 86 88 89 89 89 88
81 84 85 85 86 87 87 88 89 87 86 86 86 89 90 91 79 84 86 87 86 84
82 86 86 88 90 90 86 87 89 89 88 86 82 92 92 92 85 82 84 85 84 85
82 85 87 90 90 90 89 89 87 86 90 91 87 94 94 94 86 86 86 82 84 84
82 84 86 86 89 88 89 87 83 85 86 88 88 96 96 95 80 85 83 85 86 92
83 85 85 87 86 87 88 88 90 90 87 88 88 86 96 98 86 82 82 82 80 78

GFSNIL_sfc_rhum_051.txt.gz
RH
77 59 59 66 54 54 51 53 63 70 69 71 72 71 75 67 66 70 66 73 68 49
75 73 63 69 69 56 66 51 63 66 69 69 70 72 75 65 73 72 73 70 73 64
70 73 70 70 73 69 62 66 60 67 67 68 70 72 77 68 71 76 65 62 74 74
66 66 68 68 70 71 67 70 69 70 68 69 70 71 76 75 70 76 75 73 74 76
68 68 66 70 68 71 73 68 69 69 70 69 67 69 74 72 63 72 74 73 75 73
64 66 69 71 69 71 72 71 64 67 71 69 67 70 71 72 70 69 69 70 72 72
66 66 65 70 73 70 73 73 70 70 69 67 65 66 67 69 71 71 67 68 69 70
68 68 69 72 74 73 73 72 72 72 69 67 62 53 67 68 69 72 71 69 70 69
71 73 74 76 77 78 76 75 75 72 71 70 56 69 83 74 65 70 73 72 71 71
74 76 77 76 78 80 80 76 79 73 71 74 72 84 88 91 62 64 69 73 71 64
75 76 77 78 80 81 76 79 78 76 77 76 71 89 90 90 72 69 70 70 70 73
73 76 77 80 80 77 76 76 76 74 78 80 78 94 94 92 71 68 75 70 70 71
72 75 77 79 82 79 77 75 65 70 74 81 78 95 95 91 63 69 63 72 76 88
73 76 77 80 80 79 78 74 78 74 75 77 79 79 99 98 73 61 61 59 56 56

GFSNIL_sfc_rhum_054.txt.gz
RH
69 48 48 55 43 42 38 38 47 57 58 61 59 59 62 55 53 58 56 63 58 36
68 64 52 60 55 43 52 38 45 50 58 56 58 60 63 52 60 59 63 58 61 54
59 62 61 56 61 57 48 54 48 53 54 54 56 60 66 55 59 63 53 49 59 62
54 54 58 56 58 61 57 56 61 57 55 53 57 59 64 63 55 63 64 60 59 66
57 57 54 60 57 60 64 59 61 59 59 56 54 58 63 62 52 59 62 61 63 62
52 54 56 59 58 62 63 63 55 58 61 58 55 58 60 61 59 56 57 58 61 61
54 53 52 58 63 58 64 64 62 59 59 58 54 53 55 57 60 58 55 57 57 59
57 57 58 62 64 62 63 63 62 62 59 57 51 41 55 54 55 59 58 56 57 57
62 65 65 67 69 70 67 67 66 62 60 59 44 60 73 62 51 55 60 60 58 58
65 68 70 68 71 72 72 68 71 64 61 64 61 75 78 80 49 50 56 62 59 52
66 68 70 71 73 75 68 70 70 68 69 67 61 82 83 84 59 58 58 57 58 63
64 68 68 71 73 69 68 68 67 64 70 71 69 87 89 86 59 57 65 60 60 60
64 68 69 71 75 72 68 65 55 60 64 70 69 89 92 88 52 56 49 62 68 80
64 69 69 74 73 72 69 64 70 63 64 68 69 70 96 98 65 47 44 42 39 39

GFSNIL_sfc_rhum_057.txt.gz
RH
68 46 44 50 39 37 32 33 58 58 54 58 57 58 65 55 54 61 56 60 64 38
68 63 46 55 57 41 49 34 40 50 56 54 54 58 64 50 63 61 60 61 62 53
64 66 59 57 62 57 50 54 46 50 50 55 57 58 67 56 58 63 52 47 65 64
58 58 61 58 60 61 57 58 60 57 56 56 56 59 68 67 56 62 64 61 56 65
59 57 55 60 59 62 65 60 61 62 61 58 54 59 65 62 52 58 60 60 64 58
54 56 55 61 59 62 65 66 55 61 66 63 57 60 62 64 62 58 58 58 61 60
54 54 53 58 63 60 65 68 66 63 64 62 59 56 56 59 62 61 56 57 58 59
55 56 58 60 63 63 64 66 67 67 64 62 54 45 58 58 59 64 61 58 58 58
58 62 62 63 65 68 67 68 69 66 66 64 45 60 71 62 54 60 64 64 62 60
59 64 65 64 67 70 71 68 72 69 66 67 65 73 74 74 49 55 60 64 64 55
59 64 66 68 69 73 69 71 71 70 70 69 63 78 81 78 58 56 58 59 62 66
56 63 67 70 72 70 69 70 68 67 72 73 70 83 84 82 57 56 63 60 60 60
59 64 68 70 74 71 68 67 56 62 67 74 72 91 88 82 50 57 51 64 69 79
62 66 69 73 72 72 71 63 71 65 66 69 71 73 92 92 64 47 46 44 40 42

GFSNIL_sfc_rhum_060.txt.gz
RH
76 62 62 68 58 66 56 59 70 72 75 77 78 79 81 79 77 80 79 79 81 78
75 72 61 71 70 60 68 58 68 70 73 73 75 77 85 79 85 81 82 80 80 81
68 72 70 66 74 68 67 66 75 73 72 72 74 75 81 77 79 84 81 73 82 83
69 65 67 67 66 72 67 74 71 71 72 73 73 75 80 80 76 78 82 79 78 82
69 68 65 65 67 69 71 69 75 74 75 73 72 74 77 77 66 76 77 78 78 76
66 68 67 67 63 68 71 74 65 73 76 75 72 74 75 77 75 75 75 75 78 77
66 64 64 68 67 68 71 72 72 72 74 73 72 70 69 73 76 75 71 74 73 75
65 65 67 68 70 65 68 71 73 74 73 73 68 58 70 70 73 76 75 72 73 72
66 69 69 70 71 73 71 72 74 75 74 74 60 68 75 71 67 74 76 77 75 75
66 70 71 70 71 75 75 73 77 76 75 76 74 76 77 78 62 68 72 76 75 69
63 67 70 72 73 74 73 75 76 76 77 76 72 82 81 80 67 68 70 71 73 76
60 66 69 73 74 72 72 74 74 73 77 79 76 87 84 84 70 66 71 68 72 75
62 64 70 72 75 73 72 72 67 70 73 78 77 91 88 83 62 68 65 73 76 81
64 66 70 75 74 75 74 72 76 74 72 75 77 78 92 90 70 62 64 62 62 63

GFSNIL_sfc_rhum_063.txt.gz
RH
90 71 84 81 78 66 68 64 79 81 84 86 88 85 90 88 90 86 92 84 88 85
90 76 79 75 79 73 70 68 78 82 80 85 87 88 87 89 92 90 91 90 89 90
72 85 82 76 80 75 67 71 79 80 76 83 86 84 89 86 89 89 86 82 90 90
64 74 81 82 70 81 73 82 79 82 87 84 82 88 91 86 87 88 88 85 90 86
68 65 71 78 84 67 78 81 79 77 78 83 84 87 88 87 77 84 89 85 87 87
72 68 63 63 78 73 82 75 84 81 78 78 79 84 88 88 87 85 86 84 88 85
70 71 63 60 60 80 66 88 75 86 80 87 78 82 85 85 89 88 86 88 86 85
69 67 69 66 68 60 75 64 84 78 90 80 82 73 85 85 86 83 86 86 84 85
67 69 70 71 71 69 64 74 65 74 80 88 70 79 83 77 86 83 80 85 88 86
66 70 71 71 72 79 67 69 80 72 74 78 78 84 84 83 67 75 83 80 80 81
66 69 71 69 73 71 72 66 64 73 77 78 75 88 86 82 68 69 70 80 82 78
62 69 71 71 71 68 70 72 68 70 75 79 77 92 90 84 72 67 72 74 73 82
62 65 69 70 67 67 65 65 71 68 72 80 77 91 92 88 68 72 68 73 78 93
62 61 65 66 67 66 68 68 68 73 70 74 80 77 96 94 72 67 68 67 67 67

GFSNIL_sfc_rhum_066.txt.gz
RH
82 81 82 85 73 70 72 74 86 83 89 90 89 91 93 91 92 91 94 90 92 90
90 91 85 85 83 74 70 73 86 83 85 88 91 89 93 94 93 94 93 94 90 93
71 87 84 83 83 85 79 80 85 89 84 88 90 91 94 92 92 95 94 92 92 92
64 72 95 81 75 79 80 77 80 83 83 84 90 90 96 92 89 93 91 88 90 92
64 67 76 91 77 75 82 85 84 84 83 81 84 92 93 93 84 94 92 87 92 91
66 64 65 70 90 80 74 85 92 87 84 84 83 86 90 89 89 90 90 89 90 89
73 67 61 61 67 92 81 73 86 87 82 79 80 80 83 87 92 92 89 90 91 90
70 72 68 61 62 66 84 73 74 85 84 81 77 73 79 81 87 92 94 93 91 92
69 73 75 74 64 67 66 71 79 87 82 82 74 80 87 83 84 86 87 89 94 91
74 75 76 76 76 70 69 61 69 74 86 85 82 85 88 88 79 85 83 82 81 86
74 76 76 75 78 75 73 68 62 71 70 77 82 91 90 88 78 81 80 81 84 83
70 74 74 77 76 75 76 76 66 67 78 73 70 90 92 92 81 78 78 75 75 81
66 68 73 72 74 72 71 74 72 68 66 81 78 91 94 94 77 79 76 74 75 89
65 63 65 68 69 69 72 69 73 73 69 68 75 74 96 97 80 76 76 74 71 73

GFSNIL_sfc_rhum_069.txt.gz
RH
80 78 85 88 85 83 81 85 87 92 91 93 91 92 94 96 96 94 94 92 94 93
81 81 82 90 88 83 81 80 88 90 90 91 93 93 94 97 94 95 94 95 93 95
84 86 86 86 91 88 86 84 89 92 92 90 92 93 94 96 94 95 97 96 95 94
72 89 96 87 84 88 88 87 86 92 92 91 91 94 96 95 93 95 95 93 94 92
66 75 89 90 86 84 84 87 85 87 94 90 87 92 95 95 90 93 94 94 93 93
66 67 71 83 94 85 84 84 89 92 92 90 85 88 90 91 94 94 93 92 93 90
69 66 64 65 80 92 83 83 86 96 92 91 87 84 84 91 95 95 91 91 92 91
70 67 64 64 64 77 92 80 79 83 96 91 87 82 85 87 91 93 92 93 90 92
70 74 72 69 66 65 71 84 87 82 78 91 80 84 88 84 84 88 92 92 94 93
77 78 79 75 72 67 66 66 70 79 85 78 80 89 88 88 74 77 80 85 87 91
73 80 82 80 81 73 67 68 67 65 67 79 74 89 90 89 81 78 78 80 82 87
74 79 78 80 80 80 76 73 72 66 66 68 69 93 92 92 81 79 81 80 82 83
86 85 83 81 79 77 86 76 75 74 69 72 69 83 96 95 79 82 80 79 82 91
96 96 91 78 76 77 77 77 79 80 75 71 74 75 92 96 82 73 73 76 73 77

GFSNIL_sfc_rhum_072.txt.gz
RH
88 83 86 85 86 87 87 86 88 89 89 90 90 88 91 87 87 88 85 86 90 83
86 87 86 89 87 85 88 80 86 89 89 89 90 90 92 88 90 93 90 89 88 85
82 84 84 87 89 89 87 86 89 89 90 90 92 90 92 91 90 91 89 86 90 90
83 86 86 82 85 87 88 89 88 90 88 90 91 92 95 92 90 90 91 89 90 89
82 86 88 84 84 86 87 89 88 88 90 89 88 90 90 90 85 89 88 87 90 87
76 81 85 86 88 87 84 86 85 88 89 90 88 90 89 88 88 88 87 86 87 86
75 74 74 80 87 87 85 84 84 85 86 87 88 87 87 87 87 87 86 87 87 86
74 75 76 78 82 85 86 82 82 84 86 86 86 79 88 87 87 87 87 87 86 85
78 80 80 80 81 84 87 86 87 84 83 86 76 88 91 88 86 88 88 88 88 87
81 83 83 81 81 81 81 85 87 85 83 84 84 89 92 92 82 85 86 88 87 84
83 82 85 84 84 83 78 79 83 84 85 82 78 89 92 90 83 83 83 83 85 85
80 83 84 87 89 87 81 79 77 75 82 84 80 88 91 92 81 81 84 83 82 83
92 93 86 90 89 94 88 82 74 75 77 79 78 86 91 92 75 77 75 82 87 93
95 97 97 95 94 96 95 94 86 83 81 81 80 78 90 95 80 74 73 72 71 78

GFSNIL_sfc_rhum_075.txt.gz
RH
75 60 58 65 56 58 56 57 66 71 69 74 75 71 73 64 61 69 64 71 78 56
75 73 63 68 68 56 65 54 66 67 70 69 73 74 74 62 81 81 73 69 71 63
68 70 69 69 72 67 63 68 64 68 68 71 72 74 77 68 70 74 65 60 73 72
63 64 68 67 68 70 68 71 71 72 69 69 70 73 78 76 70 74 74 71 73 73
66 64 63 68 66 67 71 69 70 72 73 70 69 72 75 73 65 74 71 68 73 71
71 69 64 66 65 68 69 69 64 68 73 72 70 72 73 72 72 70 69 66 69 68
73 72 63 66 69 67 70 70 68 68 69 68 68 69 68 70 72 71 68 68 67 67
65 69 73 72 70 68 70 68 67 68 67 66 61 54 68 69 70 72 70 68 68 67
66 69 70 73 72 73 71 72 70 68 68 67 53 66 83 73 64 69 72 71 70 69
70 71 74 71 73 74 76 72 75 71 68 71 68 80 88 92 57 62 68 71 69 63
73 72 72 74 74 77 71 74 74 72 74 74 66 84 90 93 70 64 66 67 68 70
83 75 73 74 76 74 73 73 71 68 74 77 75 87 90 90 66 60 70 68 67 68
83 87 82 75 78 75 76 72 63 66 68 74 74 90 90 87 57 62 56 67 72 89
87 92 91 90 87 81 80 79 76 74 72 73 73 74 93 92 68 56 57 56 53 52

GFSNIL_sfc_rhum_078.txt.gz
RH
67 52 49 51 42 41 40 42 51 59 55 57 57 58 62 51 48 55 49 57 59 39
66 65 50 53 52 43 50 39 50 55 57 55 56 59 63 49 57 58 58 54 56 49
59 63 61 57 59 56 47 53 48 57 56 58 58 60 65 53 57 62 52 46 55 60
52 54 59 56 57 59 55 55 58 60 62 61 57 58 66 64 55 62 61 58 58 63
60 54 51 57 55 57 60 56 58 60 67 56 56 58 66 61 51 59 59 58 61 59
55 54 54 53 56 57 59 59 51 56 65 63 54 59 61 62 60 57 56 55 58 58
54 56 58 53 56 56 59 61 58 56 58 59 58 56 60 59 62 58 54 58 57 57
52 57 56 65 58 56 58 59 60 58 56 57 52 44 59 58 57 61 61 57 58 57
54 56 61 64 76 62 60 62 62 61 57 56 41 58 75 65 53 57 61 60 58 58
66 64 65 63 65 67 66 63 66 63 60 61 58 71 79 80 49 49 54 59 57 50
80 73 75 75 72 68 65 66 65 64 66 64 58 78 81 84 58 55 57 55 56 60
87 87 82 75 79 76 76 70 64 62 66 69 68 85 86 85 56 53 61 58 57 58
81 93 90 84 91 88 76 70 62 60 61 68 67 86 90 85 51 54 48 59 65 78
77 89 91 96 90 93 92 86 78 67 67 67 65 67 94 93 62 49 46 44 42 42

GFSNIL_sfc_rhum_084.txt.gz
RH
77 67 64 69 68 73 90 86 78 77 74 73 75 72 76 78 75 77 75 75 80 79
77 76 67 71 72 63 76 87 76 87 73 71 70 75 80 84 79 76 79 77 78 80
72 75 75 76 72 71 74 82 94 89 85 73 74 74 79 79 79 81 78 71 80 80
68 68 72 71 70 71 70 78 89 83 85 75 74 77 82 80 74 77 81 78 78 80
68 67 67 72 70 72 75 72 73 78 75 77 74 78 79 75 67 78 80 76 76 74
62 63 65 70 69 72 74 75 67 71 77 77 73 75 77 80 76 73 76 73 76 76
62 62 62 71 74 69 73 74 74 73 73 72 73 71 71 76 79 77 71 75 74 74
94 74 69 75 74 75 71 71 74 74 72 72 66 55 70 71 73 76 74 75 76 70
90 92 90 82 77 77 76 76 75 74 74 73 54 62 75 71 66 74 78 77 74 74
87 90 90 90 88 86 84 82 78 76 76 75 74 77 79 81 65 70 79 79 75 69
84 87 87 90 91 91 94 91 89 81 80 78 71 84 81 82 75 69 70 70 75 77
82 86 88 87 92 94 95 94 90 86 84 83 81 87 89 89 86 68 73 68 70 70
68 72 74 85 89 94 94 94 94 87 89 85 82 89 91 92 73 73 67 72 74 77
66 71 70 74 80 84 86 92 86 87 90 89 89 84 96 94 89 73 70 67 64 59

GFSNIL_sfc_rhum_087.txt.gz
RH
88 90 82 80 88 84 88 91 86 85 86 87 84 83 84 87 87 83 84 83 84 86
90 88 81 76 88 75 88 87 86 89 86 79 84 83 88 91 89 86 84 81 86 86
93 89 89 88 84 84 87 81 84 88 85 87 85 86 85 87 88 88 89 85 85 86
86 88 90 88 86 83 86 91 92 89 81 85 86 84 90 89 82 86 87 85 86 81
84 83 85 89 84 84 83 92 88 79 80 84 87 88 87 83 76 86 84 82 88 82
87 76 76 81 84 82 85 82 85 85 88 89 81 83 88 86 83 89 85 84 87 83
97 97 84 90 85 85 85 86 84 85 82 85 83 83 84 87 87 85 84 84 86 82
97 97 94 91 91 90 90 84 85 85 86 89 80 71 84 85 86 85 84 84 85 82
97 98 98 97 97 92 86 88 89 88 87 85 71 77 81 79 77 89 81 81 87 86
98 97 98 97 97 98 99 97 92 90 89 90 91 85 82 85 78 82 91 92 88 79
91 94 96 97 97 96 98 98 98 96 94 94 92 93 94 94 89 78 77 83 90 85
86 89 90 94 98 98 97 95 95 96 96 97 95 94 95 98 96 95 84 79 80 82
78 76 82 86 90 94 96 97 97 96 95 94 97 96 99 99 96 95 87 83 83 90
72 74 74 78 85 87 88 93 96 96 96 96 97 98 100 100 99 98 98 97 92 75

GFSNIL_sfc_rhum_093.txt.gz
RH
92 90 93 92 92 90 95 93 89 92 93 91 89 88 86 94 91 90 92 88 92 88
94 92 89 88 92 87 91 93 88 90 94 94 92 90 92 95 92 92 92 90 90 93
94 92 90 90 90 90 91 88 87 91 92 91 92 92 91 94 92 92 94 92 92 92
94 92 94 93 91 90 89 91 92 93 92 91 92 92 94 94 91 91 92 92 92 91
94 94 95 96 93 91 93 93 94 91 92 91 91 93 94 94 88 92 90 86 92 91
96 96 96 95 94 93 93 92 92 89 90 91 83 88 94 94 95 92 91 90 91 88
99 99 99 97 97 96 94 94 91 89 84 80 79 81 86 91 95 93 89 93 92 89
99 98 98 99 99 98 97 96 95 94 92 90 88 82 93 92 93 95 94 90 92 92
97 98 98 98 98 97 98 98 98 98 97 96 86 90 91 92 93 94 96 96 94 94
98 97 97 97 96 98 98 98 98 98 98 98 98 98 97 94 95 96 96 95 96 91
97 98 98 97 96 96 96 97 98 98 98 99 98 100 100 99 98 96 94 91 92 95
85 96 96 97 97 96 95 95 95 97 98 98 98 100 100 99 97 98 97 98 96 93
75 81 87 89 92 95 92 93 94 95 98 99 96 99 98 96 98 96 94 97 97 100
76 73 72 77 80 77 76 80 94 97 97 96 97 93 97 94 91 94 94 96 97 97